Wind_Speed
1 1 2 3 6 7 8 10 12 14 14 15 15 16 16 15 15 14 13 12 12 11 10 10 8 8 8 8 8 7 6 5 4 4 3 2 2 2 1 1 0 1 1 1 1 0 1 2 2
2 2 2 3 5 7 7 9 11 12 12 13 14 14 14 14 14 13 12 12 11 11 11 10 9 8 8 8 7 6 6 5 4 4 3 3 2 2 2 1 1 1 0 1 0 1 2 2 2
4 3 2 2 3 6 6 8 10 11 12 12 13 14 14 14 13 13 12 11 11 10 10 10 9 9 8 8 8 7 6 5 4 3 3 3 2 1 1 1 1 1 0 1 1 2 2 3 3
5 5 3 2 3 5 5 7 9 10 11 12 12 14 14 14 13 12 11 11 10 10 10 9 9 8 8 8 8 7 6 5 4 3 3 2 2 1 1 1 1 1 1 2 2 2 2 3 4
6 5 5 4 4 4 5 6 7 10 11 11 12 13 13 13 13 12 11 11 10 10 9 9 8 8 8 8 8 7 7 5 5 4 3 2 1 1 1 1 1 1 1 1 1 2 2 3 4
7 6 6 5 4 4 5 6 7 10 10 11 11 12 13 13 13 12 11 11 10 10 9 8 8 8 8 8 8 7 7 6 5 4 3 2 1 1 0 1 1 1 0 1 2 2 2 2 3
9 8 7 6 6 5 4 5 7 9 10 10 11 12 13 13 12 12 11 11 10 10 8 8 8 7 7 8 8 7 6 6 5 5 4 3 2 0 1 1 1 1 2 2 3 3 3 3 4
10 9 8 7 7 6 5 6 7 8 10 10 10 11 13 13 12 12 11 11 10 9 8 7 7 7 7 7 7 7 6 6 5 5 4 3 3 1 1 1 1 1 1 2 2 3 3 4 4
11 9 9 9 8 8 6 6 7 9 10 10 10 11 12 12 12 12 11 11 10 9 8 8 7 7 7 7 7 7 6 5 5 4 4 3 3 2 2 1 1 2 2 2 3 3 3 4 4
12 10 11 11 11 9 8 7 7 9 10 10 11 10 11 11 11 12 12 11 10 8 8 8 7 6 6 6 6 6 6 5 4 4 4 3 2 2 2 2 2 2 2 3 4 4 4 4 4
13 12 13 13 13 11 9 8 8 9 10 11 11 10 10 10 11 11 11 11 9 8 7 7 6 5 6 6 6 6 6 4 4 3 4 4 3 3 3 3 3 3 4 4 4 5 4 5 5
15 14 15 15 14 13 11 10 10 10 10 11 11 11 11 10 11 11 11 10 9 8 7 7 6 5 5 6 6 6 5 4 3 3 4 4 4 3 3 4 4 4 4 4 5 4 5 6 6
17 17 17 16 15 14 13 12 11 11 11 12 11 10 10 10 10 10 10 9 9 8 7 6 6 5 5 5 5 5 5 5 4 4 4 4 4 3 4 4 4 4 4 5 4 4 5 6 6
19 18 18 17 16 16 15 13 12 11 11 11 10 9 10 10 11 10 10 9 8 8 7 6 6 5 5 5 5 5 5 5 4 4 4 4 4 4 4 4 4 4 4 4 4 4 5 5 6
20 19 18 18 18 17 16 14 13 12 11 10 10 10 10 10 10 10 10 9 8 8 7 6 6 6 6 5 6 5 6 5 5 4 4 4 4 4 4 5 5 4 4 4 4 4 4 5 6
21 20 19 19 19 19 18 15 15 14 12 11 10 9 10 10 10 10 9 8 8 8 8 6 6 7 6 6 6 6 6 5 5 5 4 4 5 5 5 5 5 5 4 4 4 4 5 6 6
21 21 20 21 21 20 19 17 16 15 13 12 10 10 10 10 10 10 9 9 8 8 8 7 7 7 7 6 7 7 7 6 5 6 5 4 5 5 6 6 6 5 5 5 5 5 5 6 6
22 22 21 22 22 22 21 19 18 17 14 12 11 11 10 10 10 10 10 9 9 9 8 7 7 7 7 7 8 8 8 8 7 8 7 6 5 5 5 6 6 6 5 5 5 6 6 6 6
23 22 21 21 23 24 23 21 20 18 16 14 13 12 10 10 11 11 10 10 9 9 9 7 7 8 9 9 9 9 9 9 9 9 7 6 6 6 6 6 6 6 6 6 6 6 6 6 7
22 22 22 21 23 25 24 22 21 19 18 17 15 13 12 11 11 11 11 10 10 9 9 9 9 9 10 10 10 10 10 10 9 9 8 7 7 7 6 6 7 7 7 7 7 7 7 7 7
21 21 22 22 24 26 25 24 22 21 19 18 17 15 14 13 12 12 12 12 12 11 10 10 10 10 11 12 11 11 11 10 10 10 9 9 8 8 8 7 7 8 8 8 8 7 8 8 8
22 21 22 23 24 26 26 25 22 22 21 20 19 17 15 15 14 14 13 12 12 12 11 12 11 11 12 12 12 11 13 12 11 11 11 11 10 10 10 9 9 9 9 9 9 8 8 9 9
22 22 23 24 25 26 26 27 24 23 23 22 21 19 18 17 16 16 15 14 14 14 13 12 12 12 13 13 13 13 13 13 13 13 12 12 12 12 11 11 11 10 10 11 11 10 10 10 10
23 24 24 25 25 26 26 28 26 24 23 22 21 20 19 18 18 18 17 16 16 15 15 14 14 14 13 13 14 14 14 14 14 14 14 14 14 14 13 13 12 12 12 12 12 11 11 11 11
23 24 24 25 26 26 26 28 27 25 23 22 21 20 20 20 20 20 19 19 17 16 16 15 16 15 15 15 15 14 14 14 14 14 15 15 15 15 15 14 14 14 14 13 13 13 13 12 11
24 25 25 26 26 26 26 27 26 26 25 24 23 21 21 21 21 20 20 20 19 17 17 17 17 16 16 17 18 17 15 15 15 16 17 17 16 16 16 16 16 15 14 14 14 14 14 13 13
24 25 25 26 27 27 27 27 26 25 25 24 23 22 22 21 21 21 21 20 20 19 19 19 19 18 18 18 19 19 18 18 18 19 19 19 19 19 18 18 17 16 16 16 16 16 15 15 15
24 24 25 26 27 27 27 26 26 25 25 24 24 23 23 23 22 22 22 22 22 21 20 21 21 21 20 20 20 20 21 22 21 21 20 20 20 19 19 19 18 18 17 17 17 17 17 17 17
25 25 26 27 28 28 28 27 26 25 25 25 24 23 24 23 23 24 24 24 23 23 22 22 22 21 22 22 22 22 22 22 21 21 22 21 21 20 19 19 20 19 18 18 18 18 19 18 18
26 27 27 28 28 28 29 28 26 26 25 25 24 24 24 24 24 24 25 25 25 25 25 24 23 23 23 23 24 24 24 24 23 23 23 23 22 21 21 21 20 19 19 19 19 19 19 19 19
Wind_Direction
355 2 33 38 36 42 40 33 32 32 30 28 27 26 23 19 17 16 14 14 16 16 14 13 17 24 30 37 47 52 50 51 51 50 52 40 35 35 21 23 293 252 226 224 218 226 203 194 190
284 307 354 15 24 32 33 26 26 28 28 27 26 24 21 18 16 15 14 12 13 13 13 15 22 27 30 37 45 50 52 51 49 47 41 33 26 19 26 10 313 310 343 186 274 263 227 207 202
272 287 312 358 17 28 29 23 21 25 23 22 21 20 18 15 14 13 12 12 12 10 11 17 24 29 31 36 43 49 50 49 45 42 31 23 16 11 6 311 290 310 305 240 251 273 236 213 206
262 268 281 316 360 19 21 18 18 19 19 18 15 14 14 12 10 10 11 11 10 9 12 20 26 30 33 37 43 46 48 50 52 45 30 22 19 20 350 308 319 309 286 274 265 271 258 229 218
258 256 271 297 321 359 15 19 14 15 16 13 10 10 9 6 6 7 8 8 8 9 11 20 26 32 36 36 38 43 44 48 51 45 38 35 31 24 351 335 335 283 262 277 286 272 271 249 228
255 258 262 281 309 334 360 13 10 13 12 8 6 7 6 3 3 4 6 6 8 11 14 22 27 32 37 37 37 42 45 47 48 44 44 44 30 39 5 342 358 315 268 316 296 276 296 268 247
252 258 260 267 286 299 330 348 356 6 4 6 3 1 1 2 1 3 4 6 8 11 15 24 29 33 37 39 40 43 44 45 47 46 49 46 39 27 333 338 333 317 321 313 296 283 276 272 267
253 256 258 263 277 285 311 327 337 353 353 354 356 358 359 358 357 358 1 2 3 7 11 18 26 32 36 39 40 40 39 40 45 45 42 39 43 25 358 332 316 324 312 307 291 278 278 274 259
247 246 251 260 268 276 297 315 327 341 345 343 348 351 355 353 354 354 356 356 357 2 9 16 22 27 31 32 34 35 35 35 44 47 41 39 39 30 14 6 347 322 289 277 275 279 280 276 263
240 241 247 254 262 270 284 302 316 327 337 338 341 343 346 347 348 349 349 349 353 358 7 15 17 23 25 26 28 31 29 30 38 40 32 29 30 25 16 2 339 318 291 276 265 265 271 272 266
240 238 243 250 259 269 281 292 303 314 324 329 333 334 334 338 341 343 342 345 349 354 1 8 10 14 21 22 23 24 24 22 26 26 16 11 12 5 2 348 332 319 300 286 269 259 264 267 270
241 241 243 252 262 269 277 285 293 305 314 316 322 329 331 334 334 335 338 343 346 348 355 360 1 6 13 14 13 16 20 19 12 6 357 351 352 351 345 334 329 321 315 297 282 273 265 263 270
244 245 246 251 260 267 270 275 285 297 302 305 312 321 328 333 333 332 336 339 343 346 349 350 348 356 358 358 359 3 8 11 1 350 350 349 349 348 340 333 337 331 320 305 287 271 268 267 274
245 246 249 251 256 262 264 268 275 284 290 296 303 315 321 326 327 327 328 331 338 339 338 339 334 341 344 344 343 348 352 353 352 344 350 350 341 338 338 335 333 330 321 301 292 279 270 271 274
244 243 247 251 253 256 260 262 268 273 278 284 293 302 311 318 321 323 324 326 331 329 329 335 333 330 333 332 335 338 348 349 347 338 339 344 343 339 330 326 324 322 323 312 292 284 280 279 279
243 242 241 245 251 254 257 259 262 265 268 276 284 291 301 310 314 317 319 322 324 323 319 320 325 326 326 328 329 329 336 342 344 339 334 338 340 340 336 333 331 321 311 305 294 289 284 279 281
239 238 237 241 248 253 257 257 257 260 263 268 275 282 294 299 305 307 306 311 311 311 311 315 318 321 318 314 312 313 320 327 322 326 322 335 341 331 325 328 333 326 320 306 297 293 287 283 289
237 238 238 239 246 252 255 256 254 258 261 263 267 274 286 292 301 301 295 299 298 300 301 307 311 311 310 308 304 301 302 309 312 307 307 310 321 326 328 327 330 329 324 314 296 291 290 295 292
239 239 239 241 245 248 251 254 254 254 257 259 261 269 276 286 296 298 296 294 293 294 293 293 302 300 297 297 296 291 292 300 307 307 313 306 305 311 317 320 320 322 317 311 299 292 290 290 288
239 239 240 242 244 247 248 252 253 253 253 256 260 265 272 281 288 290 292 293 293 290 289 285 288 293 291 287 285 288 287 294 302 307 307 307 308 305 307 311 309 308 306 300 292 286 284 284 286
240 241 241 242 244 249 250 252 253 254 254 257 260 262 266 273 274 279 285 288 287 286 283 285 282 284 286 284 282 281 284 290 292 296 296 295 297 299 299 304 307 303 298 298 296 289 288 289 291
241 244 245 245 248 248 250 254 254 256 258 261 262 263 268 270 266 269 275 282 280 279 280 281 281 277 280 278 278 278 282 283 284 287 289 287 288 292 294 291 295 294 290 288 291 292 288 288 289
243 244 246 247 249 249 250 255 256 257 261 263 265 265 268 270 267 266 269 276 274 272 273 275 277 279 279 275 275 279 286 281 283 285 285 285 284 287 290 285 284 287 287 287 288 287 287 288 288
244 245 246 248 250 251 251 255 259 258 262 264 264 265 265 267 269 268 267 271 274 271 271 272 272 273 272 272 275 277 279 278 281 283 281 281 279 279 281 282 282 281 284 287 286 283 284 285 284
247 247 248 250 250 253 254 257 260 263 265 266 265 263 264 264 268 268 267 267 269 269 269 273 270 271 273 273 275 277 275 275 277 280 280 279 277 276 278 280 283 283 280 281 281 280 280 280 281
250 250 251 254 254 256 257 260 263 266 266 268 265 263 262 264 265 264 264 263 263 265 266 268 271 272 272 273 274 276 274 273 275 279 280 280 278 276 276 277 279 280 283 281 279 280 277 276 276
252 253 253 256 258 260 262 264 265 267 268 268 268 266 263 263 263 263 264 265 265 265 266 267 270 271 273 273 273 274 271 270 273 276 277 278 277 278 277 279 277 278 281 283 280 279 276 273 274
253 255 255 257 261 263 264 266 268 269 270 270 270 268 265 263 264 265 263 264 266 266 265 264 267 269 270 271 272 270 268 268 269 272 272 274 276 278 278 277 277 276 277 280 282 280 276 273 273
255 255 255 259 263 265 267 268 270 272 271 270 270 267 265 265 267 265 264 264 264 266 266 264 268 269 269 268 271 270 271 270 269 270 272 273 274 275 277 277 275 275 274 276 279 282 279 275 275
255 257 258 259 263 265 266 268 270 271 270 269 269 268 267 268 268 266 264 264 266 269 268 268 270 270 270 269 269 269 271 272 270 269 270 271 271 273 273 275 275 273 273 273 274 276 277 275 275
Height
5896 5896 5896 5897 5897 5896 5895 5894 5892 5890 5889 5888 5887 5885 5885 5884 5884 5884 5881 5879 5878 5877 5876 5875 5873 5872 5871 5870 5870 5869 5869 5870 5870 5870 5870 5871 5872 5872 5873 5873 5873 5873 5873 5874 5873 5874 5874 5875 5876
5896 5896 5897 5898 5897 5896 5896 5894 5893 5891 5891 5889 5888 5887 5886 5885 5883 5882 5881 5879 5878 5877 5876 5875 5874 5872 5871 5871 5870 5870 5869 5870 5870 5870 5870 5871 5871 5872 5872 5872 5873 5873 5873 5874 5874 5874 5874 5875 5876
5896 5897 5898 5898 5897 5896 5896 5894 5893 5892 5891 5890 5889 5888 5887 5886 5884 5883 5881 5880 5879 5878 5876 5875 5874 5873 5872 5871 5871 5870 5870 5870 5870 5870 5870 5871 5871 5872 5872 5872 5872 5872 5873 5874 5874 5874 5874 5875 5876
5896 5897 5898 5898 5897 5896 5896 5895 5893 5893 5892 5891 5890 5889 5888 5887 5885 5884 5882 5880 5879 5878 5877 5875 5874 5873 5872 5872 5871 5870 5870 5870 5870 5870 5871 5871 5871 5871 5872 5872 5872 5873 5873 5874 5874 5874 5874 5875 5876
5896 5897 5897 5897 5897 5896 5895 5895 5894 5893 5892 5891 5890 5889 5888 5887 5885 5884 5882 5881 5880 5878 5877 5876 5874 5873 5873 5872 5871 5871 5871 5870 5870 5870 5870 5871 5871 5871 5871 5872 5872 5872 5873 5873 5873 5874 5874 5874 5875
5895 5896 5897 5896 5896 5896 5895 5894 5894 5893 5892 5892 5890 5889 5889 5888 5886 5884 5883 5881 5880 5878 5877 5876 5875 5874 5873 5873 5872 5871 5871 5871 5871 5870 5870 5871 5871 5871 5871 5872 5872 5872 5872 5873 5873 5873 5874 5874 5874
5895 5895 5895 5895 5895 5895 5895 5895 5894 5893 5893 5892 5891 5889 5888 5888 5887 5885 5883 5882 5880 5879 5877 5876 5875 5874 5874 5873 5872 5872 5872 5871 5871 5870 5870 5871 5871 5871 5871 5872 5872 5872 5872 5872 5873 5873 5873 5873 5874
5893 5894 5894 5894 5894 5894 5894 5894 5894 5893 5893 5892 5891 5890 5888 5888 5887 5885 5883 5882 5881 5879 5878 5877 5876 5875 5874 5873 5873 5872 5872 5872 5871 5871 5871 5871 5871 5871 5871 5872 5871 5872 5872 5872 5872 5872 5873 5873 5873
5891 5894 5893 5893 5893 5893 5893 5893 5893 5893 5893 5891 5890 5890 5889 5888 5886 5885 5884 5882 5881 5880 5878 5877 5876 5875 5875 5874 5873 5873 5872 5872 5872 5871 5871 5871 5871 5871 5871 5871 5871 5871 5872 5872 5872 5872 5872 5872 5872
5890 5891 5891 5891 5891 5892 5892 5892 5892 5892 5892 5891 5890 5889 5887 5887 5886 5885 5884 5882 5881 5880 5879 5877 5877 5876 5875 5874 5874 5873 5872 5872 5872 5872 5871 5871 5871 5871 5871 5871 5871 5871 5871 5871 5871 5871 5871 5871 5871
5887 5889 5889 5889 5889 5890 5891 5891 5891 5891 5891 5890 5889 5888 5887 5886 5885 5884 5883 5882 5881 5880 5879 5878 5877 5876 5875 5875 5874 5873 5873 5872 5872 5872 5871 5871 5871 5870 5870 5870 5870 5870 5870 5870 5870 5870 5870 5870 5870
5885 5886 5886 5887 5887 5888 5889 5889 5890 5890 5890 5889 5888 5888 5887 5886 5885 5884 5883 5882 5880 5879 5878 5877 5877 5876 5875 5875 5874 5873 5873 5872 5872 5872 5872 5871 5870 5870 5870 5870 5869 5869 5869 5869 5869 5869 5869 5869 5869
5882 5883 5884 5885 5886 5887 5887 5887 5888 5888 5888 5888 5887 5886 5885 5885 5884 5883 5882 5881 5880 5879 5878 5877 5877 5876 5875 5875 5874 5873 5873 5873 5872 5872 5871 5871 5870 5870 5869 5869 5869 5868 5868 5868 5867 5867 5868 5868 5868
5880 5881 5882 5883 5884 5884 5885 5886 5886 5887 5886 5886 5885 5885 5884 5883 5883 5882 5881 5880 5879 5878 5878 5877 5876 5876 5875 5875 5874 5873 5873 5872 5872 5871 5871 5871 5870 5869 5869 5869 5868 5867 5867 5867 5866 5866 5867 5867 5867
5876 5878 5880 5880 5881 5881 5883 5884 5884 5884 5884 5884 5884 5883 5883 5882 5881 5880 5880 5879 5878 5877 5877 5876 5876 5875 5875 5874 5874 5873 5872 5872 5871 5871 5870 5870 5869 5869 5868 5868 5867 5867 5866 5866 5865 5865 5865 5866 5865
5873 5875 5877 5877 5877 5878 5881 5882 5882 5881 5882 5882 5882 5881 5881 5880 5880 5879 5878 5878 5877 5877 5876 5875 5875 5874 5874 5873 5873 5872 5872 5871 5870 5869 5869 5869 5868 5868 5868 5867 5866 5866 5865 5865 5864 5864 5864 5864 5864
5869 5871 5872 5874 5874 5875 5876 5878 5879 5878 5879 5879 5879 5879 5879 5879 5878 5877 5877 5876 5876 5875 5875 5874 5874 5873 5873 5872 5872 5872 5871 5870 5869 5869 5868 5868 5867 5867 5867 5866 5866 5865 5864 5864 5864 5863 5863 5863 5863
5865 5866 5868 5870 5871 5871 5872 5874 5875 5875 5876 5876 5877 5877 5877 5877 5876 5875 5874 5874 5874 5873 5873 5873 5872 5872 5872 5871 5871 5870 5870 5869 5868 5867 5867 5866 5866 5866 5865 5865 5864 5864 5863 5863 5862 5862 5862 5862 5861
5860 5862 5865 5867 5867 5867 5868 5870 5871 5872 5873 5873 5874 5874 5875 5874 5873 5872 5872 5872 5872 5871 5871 5871 5871 5870 5870 5870 5869 5869 5868 5867 5867 5866 5865 5865 5865 5864 5864 5863 5863 5862 5862 5861 5861 5860 5860 5860 5860
5856 5858 5861 5862 5862 5863 5864 5866 5867 5868 5869 5870 5871 5871 5871 5871 5871 5870 5870 5870 5869 5869 5869 5869 5868 5868 5868 5868 5867 5867 5867 5866 5865 5865 5864 5864 5863 5863 5862 5862 5861 5861 5860 5859 5859 5859 5858 5858 5858
5852 5854 5857 5858 5858 5859 5860 5862 5863 5865 5866 5866 5867 5867 5868 5868 5868 5868 5867 5867 5866 5866 5866 5866 5866 5866 5865 5865 5865 5865 5864 5864 5863 5863 5863 5862 5862 5861 5860 5860 5860 5859 5858 5858 5857 5857 5856 5856 5856
5848 5851 5852 5853 5854 5854 5856 5857 5860 5860 5862 5862 5863 5863 5864 5864 5864 5864 5864 5863 5863 5863 5863 5863 5863 5862 5862 5862 5862 5861 5860 5860 5860 5860 5860 5860 5859 5859 5859 5858 5858 5857 5856 5855 5855 5854 5854 5853 5853
5844 5846 5847 5848 5849 5850 5851 5852 5855 5856 5857 5858 5859 5859 5860 5860 5860 5860 5860 5860 5860 5860 5860 5859 5859 5859 5859 5858 5858 5858 5857 5857 5857 5857 5858 5857 5857 5857 5856 5856 5855 5854 5854 5853 5852 5852 5851 5850 5850
5840 5841 5842 5843 5844 5846 5847 5848 5850 5851 5852 5853 5854 5855 5855 5856 5856 5856 5856 5856 5856 5856 5856 5856 5856 5856 5855 5855 5855 5855 5855 5855 5855 5855 5855 5854 5854 5854 5853 5853 5852 5851 5851 5850 5849 5849 5848 5847 5847
5835 5837 5838 5839 5840 5841 5843 5843 5845 5846 5847 5848 5849 5850 5850 5851 5851 5851 5851 5851 5852 5852 5852 5851 5851 5851 5851 5851 5851 5851 5851 5851 5852 5852 5851 5851 5850 5850 5850 5849 5849 5848 5847 5846 5846 5845 5845 5844 5844
5830 5832 5834 5834 5835 5837 5838 5838 5841 5841 5842 5843 5843 5844 5845 5845 5846 5846 5847 5847 5847 5847 5847 5847 5847 5847 5847 5847 5847 5847 5847 5847 5848 5848 5848 5847 5847 5846 5846 5845 5845 5844 5843 5842 5842 5841 5841 5840 5840
5825 5826 5828 5829 5830 5831 5832 5833 5835 5836 5836 5837 5838 5839 5840 5840 5841 5841 5841 5842 5842 5842 5842 5842 5842 5842 5842 5842 5842 5842 5843 5843 5843 5843 5844 5843 5843 5842 5841 5841 5840 5840 5839 5838 5838 5837 5837 5837 5836
5821 5822 5823 5824 5824 5825 5826 5827 5829 5830 5830 5831 5832 5833 5833 5834 5835 5835 5835 5836 5836 5837 5837 5837 5837 5836 5836 5837 5837 5837 5837 5837 5837 5838 5838 5838 5838 5837 5837 5836 5836 5835 5834 5834 5833 5833 5832 5832 5832
5815 5817 5817 5818 5819 5819 5820 5824 5824 5824 5825 5825 5826 5826 5827 5828 5828 5829 5830 5830 5831 5831 5831 5831 5831 5830 5831 5831 5831 5832 5831 5831 5831 5832 5833 5833 5833 5832 5832 5831 5830 5830 5829 5829 5829 5828 5828 5827 5827
5809 5810 5812 5813 5813 5813 5814 5818 5817 5818 5818 5818 5819 5820 5821 5821 5822 5822 5823 5824 5825 5824 5824 5824 5825 5825 5825 5825 5825 5825 5825 5826 5826 5826 5827 5827 5827 5827 5826 5826 5825 5825 5824 5824 5824 5823 5822 5822 5822